Effective Sunday, March 17, 2024, the National Weather Service National Data Buoy Center will discontinue its Dial-A-Buoy Interactive Voice Response system. For more information, see Service Change Notice 24-06 (PDF).

Station EMAT2 - 8773146 - Matagorda City, TX Image indicating link to RSS feed of recent meteorological observations for station EMAT2


Conditions at EMAT2 as of
(9:00 am CST)
1500 GMT on 02/21/2024:
     

Click on the graph icon in the table below to see a time series plot of the last five days of that observation.

5-day plot - Wind Direction Wind Direction (WDIR): SE ( 140 deg true )
5-day plot - Wind Speed Wind Speed (WSPD): 8.0 kts
5-day plot - Wind Gust Wind Gust (GST): 8.9 kts
5-day plot - Atmospheric Pressure Atmospheric Pressure (PRES):30.20 in
5-day plot - Pressure Tendency Pressure Tendency (PTDY):+0.03 in ( Rising )
5-day plot - Water Temperature Water Temperature (WTMP): 60.4 °F
5-day plot - Wind Speed at 10 Meters Wind Speed at 10 meters (WSPD10M): 7.8 kts
5-day plot - Wind Speed at 20 Meters Wind Speed at 20 meters (WSPD20M): 7.8 kts
5-day plot -  Wind Speed, Wind Gust and Atmospheric Pressure Combined plot of Wind Speed, Gust, and Air Pressure
Previous observations
TIME
(CST)
5-day plot - Wind Direction
WDIR
 
5-day plot - Wind Speed
WSPD
kts
5-day plot - Wind Gust
GST
kts
5-day plot - Wave Height
WVHT
ft
5-day plot - Dominant Wave Period
DPD
sec
5-day plot - Average Wave Period
APD
sec
5-day plot - Mean Wave Direction
MWD
 
5-day plot - Atmospheric Pressure
PRES
in
5-day plot - Pressure Tendency
PTDY
in
5-day plot - Air Temperature
ATMP
°F
5-day plot - Water Temperature
WTMP
°F
5-day plot - Dew Point
DEWP
°F
5-day plot - Salinity
SAL
psu
5-day plot - Visibility
VIS
nmi
5-day plot - Tide (above MLLW)
TIDE
ft
2024-02-21 08:54 am SE 7.0 9.9----30.20-- 60.4----
2024-02-21 08:48 am SE 6.0 8.0----30.20- 64.9 60.4----
2024-02-21 08:42 am SE 7.0 8.9----30.19- 64.8 60.4----
2024-02-21 08:36 am SE 8.0 9.9----30.19- 64.9 60.3----
2024-02-21 08:30 am SE 7.0 8.9----30.19- 64.6 60.3----
2024-02-21 08:24 am SE 7.0 8.9----30.19- 64.2 60.3----
2024-02-21 08:18 am SE 7.0 8.9----30.19- 64.0 60.3----
2024-02-21 08:12 am SE 7.0 8.9----30.19- 64.0 60.3----
2024-02-21 08:06 am SE 7.0 8.9----30.19- 63.9 60.3----
2024-02-21 08:00 am SE 7.0 8.9----30.18+0.02 63.5 60.3----
2024-02-21 07:54 am SE 6.0 8.0----30.18- 63.5 60.3----
2024-02-21 07:48 am SE 7.0 8.0----30.18- 63.3 60.3----
2024-02-21 07:42 am SE 7.0 8.0----30.18- 63.3 60.1----
2024-02-21 07:36 am SE 6.0 8.0----30.18- 63.0 59.9----
2024-02-21 07:30 am SE 6.0 8.9----30.18- 63.0 59.9----
2024-02-21 07:24 am SE 5.1 8.0----30.18- 62.6 59.9----
2024-02-21 07:18 am SE 6.0 7.0----30.18- 62.6 59.7----
2024-02-21 07:12 amSSE 6.0 8.9----30.18- 62.6 59.7----
2024-02-21 07:06 am SE 6.0 8.0----30.17- 62.4 59.7----
2024-02-21 07:00 am SE 7.0 8.9----30.17+0.01 62.6 59.7----
2024-02-21 06:54 am SE 6.0 8.0----30.17- 62.4 59.5----
2024-02-21 06:48 amSSE 6.0 8.0----30.17- 62.6 59.5----
2024-02-21 06:42 amSSE 7.0 8.9----30.17- 62.6 59.5----
2024-02-21 06:36 amSSE 6.0 8.0----30.17- 62.4 59.4----
2024-02-21 06:30 amSSE 6.0 8.9----30.17- 62.4 59.4----
2024-02-21 06:24 amSSE 7.0 8.9----30.17- 62.4 59.4----
2024-02-21 06:18 amSSE 6.0 8.9----30.17- 62.2 59.4----
2024-02-21 06:12 am SE 6.0 8.9----30.17- 62.4 59.4----
2024-02-21 06:06 amSSE 6.0 8.9----30.17- 62.4 59.2----
2024-02-21 06:00 amSSE 6.0 8.0----30.16+0.00 62.2 59.2----
2024-02-21 05:54 amSSE 6.0 8.0----30.16- 62.2 59.2----
2024-02-21 05:48 amSSE 6.0 8.9----30.16- 62.4 59.2----
2024-02-21 05:42 amSSE 6.0 8.0----30.16- 62.4 59.2----
2024-02-21 05:36 amSSE 6.0 7.0----30.16- 62.6 59.2----
2024-02-21 05:30 amSSE 6.0 8.0----30.16- 62.6 59.2----
2024-02-21 05:24 amSSE 7.0 8.9----30.16- 62.8 59.2----
2024-02-21 05:18 amSSE 7.0 9.9----30.16- 63.0 59.2----
2024-02-21 05:12 am SE 7.0 9.9----30.16- 62.6 59.2----
2024-02-21 05:06 am SE 6.0 8.0----30.16- 62.4 59.2----
2024-02-21 05:00 am SE 6.0 8.0----30.16-0.02 62.6 59.2----
2024-02-21 04:54 amSSE 6.0 8.0----30.16- 62.4 59.2----
2024-02-21 04:48 amSSE 6.0 9.9----30.16- 62.6 59.2----
2024-02-21 04:42 amSSE 6.0 8.0----30.16- 62.4 59.2----
2024-02-21 04:36 amSSE 7.0 8.9----30.16- 62.4 59.2----
2024-02-21 04:30 amSSE 6.0 8.0----30.16- 62.1 59.4----
2024-02-21 04:24 amSSE 6.0 8.0----30.16- 61.9 59.2----
2024-02-21 04:18 amSSE 5.1 7.0----30.16- 61.7 59.2----
2024-02-21 04:12 amSSE 5.1 6.0----30.16- 61.7 59.2----
2024-02-21 04:06 amSSE 5.1 7.0----30.16- 61.7 59.4----
2024-02-21 04:00 amSSE 5.1 6.0----30.16-0.03 61.5 59.2----
2024-02-21 03:54 am SE 5.1 7.0----30.16- 61.3 59.4----
2024-02-21 03:48 amSSE 5.1 7.0----30.16- 61.5 59.4----
2024-02-21 03:42 amSSE 5.1 6.0----30.16- 61.5 59.4----
2024-02-21 03:36 amSSE 5.1 6.0----30.16- 61.7 59.4----
2024-02-21 03:30 amSSE 5.1 6.0----30.16- 61.5 59.4----
2024-02-21 03:24 am SE 5.1 7.0----30.16- 61.5 59.4----
2024-02-21 03:18 amSSE 6.0 7.0----30.16- 61.5 59.4----
2024-02-21 03:12 amSSE 5.1 7.0----30.17- 61.5 59.4----
2024-02-21 03:06 amSSE 5.1 6.0----30.17- 61.5 59.4----
2024-02-21 03:00 amSSE 5.1 6.0----30.17-0.02 61.3 59.2----
2024-02-21 02:54 am SE 5.1 7.0----30.17- 61.5 59.4----
2024-02-21 02:48 amSSE 5.1 6.0----30.17- 61.5 59.4----
2024-02-21 02:42 amSSE 5.1 6.0----30.17- 61.5 59.4----
2024-02-21 02:36 am SE 5.1 6.0----30.17- 61.5 59.4----
2024-02-21 02:30 am SE 5.1 6.0----30.17- 61.5 59.4----
2024-02-21 02:24 amSSE 5.1 6.0----30.18- 61.7 59.4----
2024-02-21 02:18 amSSE 5.1 7.0----30.18- 61.7 59.4----
2024-02-21 02:12 amSSE 5.1 7.0----30.18- 61.9 59.4----
2024-02-21 02:06 amSSE 5.1 6.0----30.18- 61.9 59.4----
2024-02-21 02:00 amSSE 5.1 6.0----30.18-0.02 61.9 59.4----
2024-02-21 01:54 amSSE 5.1 7.0----30.19- 62.1 59.4----
2024-02-21 01:48 am S 6.0 7.0----30.19- 62.1 59.4----
2024-02-21 01:42 am S 6.0 8.0----30.19- 62.2 59.4----
2024-02-21 01:36 am S 6.0 8.9----30.19- 62.4 59.4----
2024-02-21 01:30 am S 6.0 8.0----30.20- 62.4 59.4----
2024-02-21 01:24 am S 7.0 8.9----30.20- 62.6 59.4----
2024-02-21 01:18 am S 7.0 8.9----30.19- 62.4 59.4----
2024-02-21 01:12 am S 7.0 9.9----30.19- 62.6 59.4----
2024-02-21 01:06 amSSE 7.0 9.9----30.19- 62.8 59.4----
2024-02-21 01:00 amSSE 7.0 11.1----30.19-0.02- 59.4----
2024-02-21 12:54 amSSE 8.0 11.1----30.19-- 59.4----
2024-02-21 12:48 amSSE 8.0 11.1----30.19- 62.8 59.4----
2024-02-21 12:42 amSSE 8.0 11.1----30.19- 62.8 59.4----
2024-02-21 12:36 amSSE 8.9 12.0----30.19- 63.0 59.4----
2024-02-21 12:30 amSSE 9.9 13.0----30.19- 63.0 59.4----
2024-02-21 12:24 amSSE 9.9 13.0----30.19- 63.1 59.4----
2024-02-21 12:18 amSSE 9.9 12.0----30.19- 63.1 59.4----
2024-02-21 12:12 amSSE 9.9 13.0----30.19- 63.1 59.4----
2024-02-21 12:06 amSSE 9.9 13.0----30.19- 63.1 59.4----
2024-02-21 12:00 amSSE 9.9 12.0----30.19-0.01 63.1 59.4----
2024-02-20 11:54 pmSSE 9.9 12.0----30.20- 63.1 59.4----
2024-02-20 11:48 pmSSE 8.9 11.1----30.20- 63.0 59.4----
2024-02-20 11:42 pm SE 8.9 11.1----30.20- 62.8 59.4----
2024-02-20 11:36 pmSSE 8.0 12.0----30.20- 63.0 59.4----
2024-02-20 11:30 pmSSE 8.9 11.1----30.20- 63.0 59.4----
2024-02-20 11:24 pmSSE 8.0 12.0----30.20- 63.1 59.4----
2024-02-20 11:18 pm SE 8.9 12.0----30.20- 63.0 59.4----
2024-02-20 11:12 pmSSE 8.0 9.9----30.20- 63.0 59.4----
2024-02-20 11:06 pmSSE 8.0 9.9----30.20- 62.8 59.4----
2024-02-20 11:00 pm SE 8.0 11.1----30.21-0.01 63.0 59.4----
2024-02-20 10:54 pm SE 8.0 11.1----30.21- 63.0 59.4----
2024-02-20 10:48 pm SE 8.0 9.9----30.21- 63.0 59.4----
2024-02-20 10:42 pm SE 8.0 9.9----30.21- 62.8 59.4----
2024-02-20 10:36 pm SE 8.0 11.1----30.21- 63.0 59.5----
2024-02-20 10:30 pm SE 8.0 11.1----30.21- 63.1 59.5----
2024-02-20 10:24 pm SE 8.9 11.1----30.21- 63.1 59.5----
2024-02-20 10:18 pm SE 8.9 11.1----30.21- 63.1 59.5----
2024-02-20 10:12 pm SE 8.9 11.1----30.21- 63.3 59.5----
2024-02-20 10:06 pm SE 8.0 11.1----30.21- 63.3 59.5----
2024-02-20 10:00 pm SE 8.0 11.1----30.21+0.01 63.3 59.5----
2024-02-20 09:54 pm SE 8.0 11.1----30.21- 63.3 59.5----
2024-02-20 09:48 pm SE 8.9 11.1----30.21- 63.3 59.7----
2024-02-20 09:42 pm SE 8.0 9.9----30.21- 63.3 59.7----
2024-02-20 09:36 pm SE 7.0 9.9----30.21- 63.1 59.7----
2024-02-20 09:30 pm SE 8.0 9.9----30.21- 63.1 59.7----
2024-02-20 09:24 pm SE 8.9 11.1----30.21- 63.1 59.7----
2024-02-20 09:18 pm SE 8.0 9.9----30.21- 63.1 59.7----
2024-02-20 09:12 pm SE 8.0 11.1----30.21- 63.1 59.7----
2024-02-20 09:06 pm SE 8.0 9.9----30.21- 63.1 59.7----
2024-02-20 09:00 pm SE 8.0 9.9----30.21+0.01 63.0 59.7----
2024-02-20 08:54 pm SE 7.0 8.9----30.21- 63.0 59.7----
2024-02-20 08:48 pm SE 7.0 8.0----30.21- 63.0 59.7----
2024-02-20 08:42 pm SE 6.0 8.0----30.22- 62.8 59.7----
2024-02-20 08:36 pm SE 6.0 7.0----30.22- 62.8 59.7----
2024-02-20 08:30 pm SE 6.0 8.0----30.22- 62.6 59.7----
2024-02-20 08:24 pmESE 6.0 8.0----30.22- 62.6 59.7----
2024-02-20 08:18 pmESE 6.0 8.0----30.22- 62.6 59.7----
2024-02-20 08:12 pmESE 6.0 7.0----30.22- 62.6 59.7----
2024-02-20 08:06 pmESE 6.0 7.0----30.22- 62.8 59.5----
2024-02-20 08:00 pmESE 5.1 7.0----30.22+0.02 62.6 59.5----
2024-02-20 07:54 pmESE 5.1 7.0----30.22- 62.8 59.5----
2024-02-20 07:48 pmESE 5.1 8.0----30.21- 62.8 59.5----
2024-02-20 07:42 pmESE 6.0 8.0----30.21- 62.8 59.5----
2024-02-20 07:36 pmESE 6.0 7.0----30.21- 62.8 59.5----
2024-02-20 07:30 pmESE 5.1 7.0----30.21- 62.8 59.5----
2024-02-20 07:24 pmESE 5.1 7.0----30.21- 62.8 59.5----
2024-02-20 07:18 pmESE 6.0 7.0----30.21- 62.8 59.5----
2024-02-20 07:12 pmESE 5.1 7.0----30.20- 63.0 59.5----
2024-02-20 07:06 pmESE 5.1 7.0----30.20- 63.0 59.5----
2024-02-20 07:00 pmESE 5.1 7.0----30.20+0.00 63.1 59.5----
2024-02-20 06:54 pmESE 6.0 7.0----30.20- 63.1 59.5----
2024-02-20 06:48 pm SE 6.0 7.0----30.20- 63.1 59.5----
2024-02-20 06:42 pmESE 6.0 7.0----30.20- 63.1 59.5----
2024-02-20 06:36 pmESE 6.0 7.0----30.20- 63.1 59.9----
2024-02-20 06:30 pmESE 5.1 7.0----30.20- 63.1 59.7----
2024-02-20 06:24 pmESE 5.1 7.0----30.20- 63.3 59.9----
2024-02-20 06:18 pmESE 6.0 7.0----30.20- 63.3 59.9----
2024-02-20 06:12 pmESE 5.1 7.0----30.20- 63.5 59.9----
2024-02-20 06:06 pmESE 5.1 8.0----30.20- 63.9 59.9----
2024-02-20 06:00 pm SE 6.0 8.0----30.20+0.00 64.2 60.1----
2024-02-20 05:54 pm SE 7.0 8.0----30.20- 64.6 60.3----
2024-02-20 05:48 pm SE 5.1 8.0----30.20- 64.8 60.3----
2024-02-20 05:42 pm SE 7.0 8.9----30.20- 65.1 60.3----
2024-02-20 05:36 pm SE 6.0 8.0----30.20- 65.3 60.3----
2024-02-20 05:30 pm SE 7.0 8.9----30.20- 65.3 60.3----
2024-02-20 05:24 pm SE 7.0 8.9----30.20- 65.7 60.3----
2024-02-20 05:00 pm SE 6.0 8.0----30.20-0.02 66.0 59.5----
2024-02-20 04:54 pm SE 7.0 8.9----30.19- 66.0 59.4----
2024-02-20 04:48 pm SE 6.0 8.0----30.19- 66.0 59.5----
2024-02-20 04:42 pm SE 6.0 8.0----30.19- 66.2 59.5----
2024-02-20 04:36 pm SE 6.0 8.0----30.19- 66.4 59.4----
2024-02-20 04:30 pm SE 6.0 8.0----30.19- 66.4 59.4----
2024-02-20 04:24 pm SE 6.0 8.0----30.19- 66.4 59.4----
2024-02-20 04:18 pm SE 6.0 8.0----30.19- 66.6 59.4----
2024-02-20 04:12 pm SE 6.0 8.0----30.19- 66.6 59.2----
2024-02-20 04:06 pm SE 6.0 8.0----30.19- 66.6 59.2----
2024-02-20 04:00 pmSSE 5.1 8.0----30.19-0.05 66.9 59.2----
2024-02-20 03:54 pmSSE 7.0 8.9----30.19- 66.7 59.2----
2024-02-20 03:48 pm SE 6.0 8.9----30.19- 66.7 59.2----
2024-02-20 03:42 pm SE 6.0 8.0----30.19- 66.7 59.2----
2024-02-20 03:36 pm SE 5.1 7.0----30.20- 66.9 59.2----
2024-02-20 03:30 pm SE 7.0 8.9----30.20- 66.7 59.2----
2024-02-20 03:24 pm SE 5.1 8.0----30.20- 66.9 59.0----
2024-02-20 03:18 pm SE 6.0 8.0----30.20- 66.7 59.2----
2024-02-20 03:12 pm SE 7.0 8.9----30.20- 66.9 59.0----
2024-02-20 03:06 pm SE 6.0 8.0----30.20- 66.7 59.0----
2024-02-20 03:00 pm SE 6.0 8.9----30.21-0.07 67.3 59.0----
2024-02-20 02:54 pmSSE 7.0 8.9----30.21- 67.6 59.0----
2024-02-20 02:48 pmSSE 7.0 8.9----30.21- 67.6 59.0----
2024-02-20 02:42 pmSSE 6.0 8.0----30.21- 67.6 59.2----
2024-02-20 02:36 pmSSE 7.0 8.9----30.21- 67.6 59.2----
2024-02-20 02:30 pmSSE 6.0 8.9----30.21- 67.5 59.2----
2024-02-20 02:24 pmSSE 6.0 8.0----30.21- 67.5 59.0----
2024-02-20 02:18 pmSSE 6.0 8.0----30.21- 67.5 59.0----
2024-02-20 02:12 pmSSE 6.0 8.0----30.21- 67.6 58.8----
2024-02-20 02:06 pmSSE 6.0 7.0----30.22- 67.5 58.8----
2024-02-20 02:00 pmSSE 6.0 7.0----30.22-0.07 67.5 58.8----
2024-02-20 01:54 pmSSE 6.0 8.0----30.22- 67.6 58.6----
2024-02-20 01:48 pmSSE 6.0 8.0----30.22- 67.5 58.6----
2024-02-20 01:42 pmSSE 7.0 8.0----30.22- 67.1 58.5----
2024-02-20 01:36 pmSSE 6.0 8.0----30.23- 67.5 58.5----
2024-02-20 01:30 pmSSE 6.0 7.0----30.23- 67.5 58.5----
2024-02-20 01:24 pmSSE 6.0 8.0----30.23- 67.5 58.5----
2024-02-20 01:18 pmSSE 6.0 7.0----30.23- 67.3 58.5----
2024-02-20 01:12 pmSSE 6.0 8.0----30.24- 67.1 58.5----
2024-02-20 01:06 pmSSE 6.0 8.0----30.24- 67.3 58.5----
2024-02-20 01:00 pmSSE 7.0 8.9----30.24-0.04 67.3 58.3----
2024-02-20 12:54 pmSSE 7.0 8.0----30.25- 67.6 58.3----
2024-02-20 12:48 pmSSE 7.0 8.9----30.25- 67.5 58.3----
2024-02-20 12:42 pmSSE 7.0 8.9----30.26- 67.5 58.1----
2024-02-20 12:36 pmSSE 7.0 8.9----30.26- 67.3 58.1----
2024-02-20 12:30 pmSSE 7.0 8.9----30.26- 67.3 57.9----
2024-02-20 12:24 pmSSE 6.0 8.0----30.27- 67.1 57.7----
2024-02-20 12:18 pmSSE 7.0 8.0----30.27- 66.9 57.7----
2024-02-20 12:12 pmSSE 6.0 7.0----30.27- 66.9 57.7----
2024-02-20 12:06 pmSSE 6.0 7.0----30.27- 66.9 57.6----
2024-02-20 12:00 pm SE 5.1 7.0----30.27+0.00 66.9 57.2----
2024-02-20 11:54 am SE 6.0 7.0----30.28- 66.4 56.8----
2024-02-20 11:48 am SE 6.0 7.0----30.28- 66.6 56.8----
2024-02-20 11:42 am SE 6.0 8.0----30.28- 66.4 56.7----
2024-02-20 11:36 amSSE 6.0 8.0----30.28- 66.7 56.7----
2024-02-20 11:30 am SE 5.1 8.0----30.29- 66.7 56.7----
2024-02-20 11:24 am SE 5.1 7.0----30.29- 66.4 56.5----
2024-02-20 11:18 amSSE 5.1 8.0----30.29- 66.4 56.3----
2024-02-20 11:12 am SE 5.1 7.0----30.29- 66.0 56.3----
2024-02-20 11:06 am SE 5.1 7.0----30.29- 65.7 56.3----
2024-02-20 11:00 am SE 6.0 7.0----30.29+0.04 65.5 56.3----
2024-02-20 10:54 am SE 5.1 6.0----30.29- 65.3 56.5----
2024-02-20 10:48 am SE 5.1 7.0----30.29- 65.1 56.1----
2024-02-20 10:42 am SE 5.1 7.0----30.29- 64.9 56.1----
2024-02-20 10:36 am SE 6.0 6.0----30.29- 64.4 56.1----
2024-02-20 10:30 am SE 5.1 6.0----30.29- 64.4 56.1----
2024-02-20 10:24 am SE 5.1 6.0----30.29- 64.4 55.9----
2024-02-20 10:18 am SE 5.1 7.0----30.29- 63.9 55.4----
2024-02-20 10:12 am SE 5.1 6.0----30.29- 64.0 55.4----
2024-02-20 10:06 am SE 5.1 6.0----30.29- 63.5 55.4----
2024-02-20 10:00 am SE 4.1 6.0----30.29+0.06 63.3 55.4----
2024-02-20 09:54 am SE 4.1 5.1----30.29- 63.3 55.4----
2024-02-20 09:48 am SE 4.1 5.1----30.29- 63.1 55.2----
2024-02-20 09:42 am SE 4.1 5.1----30.28- 62.6 55.2----
2024-02-20 09:36 am SE 2.9 5.1----30.29- 62.4 55.2----
2024-02-20 09:30 amESE 2.9 5.1----30.28- 62.1 55.2----
2024-02-20 09:24 amESE 4.1 5.1----30.28- 61.7 55.2----
2024-02-20 09:18 amESE 4.1 5.1----30.28- 61.3 55.2----
2024-02-20 09:12 amESE 4.1 5.1----30.28- 61.3 55.2----
2024-02-20 09:06 amESE 2.9 4.1----30.28- 61.5 55.2----
2024-02-20 09:00 am E 2.9 4.1----30.27+0.08 61.3 55.2----
2024-02-20 08:54 am E 2.9 4.1----30.27- 61.2 55.2----